When you browse on this site, cookies collect data to enhance your experience and personalize the content and advertising you see.
Visit our Privacy Policy to learn more. By continuing to use the site, you agree to this use of cookies and data.
  • In Romania
  • List of Countries
  • For 7 days
  • Water Temperature
  • Weather Map
  • Weather Widgets
  • user-avatar
    Login

    Hourly Weather Nam Dinh

    Today, 25 January, Saturday

    Time Temperature Precipitation Wind Pressure Humidity
    00:00 +22°C° 0.9 mm 4 mps 759 mmHg 91%
    01:00 +22°C° 0 mm 5 mps 759 mmHg 91%
    02:00 +22°C° 0.4 mm 5 mps 759 mmHg 91%
    03:00 +22°C° 0.4 mm 5 mps 759 mmHg 92%
    04:00 +22°C° 0.4 mm 5 mps 758 mmHg 92%
    05:00 +21°C° 0.8 mm 4 mps 759 mmHg 92%
    06:00 +21°C° 0.8 mm 4 mps 759 mmHg 92%
    07:00 +21°C° 0.8 mm 3 mps 759 mmHg 92%
    08:00 +22°C° 0.6 mm 4 mps 760 mmHg 88%
    09:00 +23°C° 0.6 mm 4 mps 760 mmHg 85%
    10:00 +25°C° 0.6 mm 5 mps 761 mmHg 81%
    11:00 +23°C° 0.9 mm 5 mps 760 mmHg 83%
    12:00 +23°C° 0.9 mm 5 mps 759 mmHg 85%
    13:00 +21°C° 0 mm 5 mps 758 mmHg 92%
    14:00 +20°C° 3.4 mm 5 mps 758 mmHg 92%
    15:00 +19°C° 3.4 mm 5 mps 758 mmHg 92%
    16:00 +17°C° 3.4 mm 6 mps 758 mmHg 92%
    17:00 +16°C° 1.4 mm 6 mps 759 mmHg 90%
    18:00 +14°C° 1.4 mm 7 mps 759 mmHg 88%
    19:00 +12°C° 1.4 mm 7 mps 760 mmHg 86%
    20:00 +12°C° 0.6 mm 7 mps 761 mmHg 86%
    21:00 +12°C° 0.6 mm 7 mps 761 mmHg 86%
    22:00 +12°C° 0.6 mm 7 mps 762 mmHg 86%
    23:00 +12°C° 0.1 mm 7 mps 762 mmHg 84%

    Tomorrow, 26 January, Sunday

    Time Temperature Precipitation Wind Pressure Humidity
    00:00 +12°C° 0.1 mm 7 mps 762 mmHg 82%
    01:00 +12°C° 0.1 mm 7 mps 761 mmHg 80%
    02:00 +12°C° 0.1 mm 7 mps 761 mmHg 79%
    03:00 +12°C° 0.1 mm 7 mps 762 mmHg 77%
    04:00 +12°C° 0.1 mm 7 mps 762 mmHg 76%
    05:00 +13°C° 0 mm 6 mps 762 mmHg 75%
    06:00 +13°C° 0 mm 6 mps 762 mmHg 74%
    07:00 +13°C° 0 mm 6 mps 763 mmHg 72%
    08:00 +13°C° 0 mm 5 mps 763 mmHg 71%
    09:00 +14°C° 0 mm 5 mps 764 mmHg 70%
    10:00 +14°C° 0 mm 5 mps 764 mmHg 68%
    11:00 +15°C° 0 mm 4 mps 763 mmHg 68%
    12:00 +15°C° 0 mm 4 mps 763 mmHg 68%
    13:00 +15°C° 0 mm 4 mps 762 mmHg 67%
    14:00 +17°C° 0 mm 3 mps 761 mmHg 65%
    15:00 +18°C° 0 mm 3 mps 761 mmHg 63%
    16:00 +18°C° 0 mm 2 mps 761 mmHg 62%
    17:00 +18°C° 0 mm 2 mps 761 mmHg 65%
    18:00 +19°C° 0 mm 1 mps 761 mmHg 68%
    19:00 +16°C° 0 mm 0 mps 761 mmHg 71%
    20:00 +16°C° 0 mm 0 mps 762 mmHg 72%
    21:00 +16°C° 0 mm 0 mps 762 mmHg 74%
    22:00 +18°C° 0 mm 1 mps 762 mmHg 75%
    23:00 +16°C° 0 mm 0 mps 762 mmHg 76%

    Day after tomorrow, 27 January, Monday

    Time Temperature Precipitation Wind Pressure Humidity
    00:00 +16°C° 0 mm 0 mps 761 mmHg 77%
    01:00 +16°C° 0 mm 0 mps 761 mmHg 79%
    02:00 +16°C° 0.1 mm 0 mps 761 mmHg 79%
    03:00 +18°C° 0.1 mm 1 mps 760 mmHg 80%
    04:00 +16°C° 0.1 mm 1 mps 760 mmHg 81%
    05:00 +16°C° 0 mm 1 mps 760 mmHg 81%
    06:00 +16°C° 0 mm 2 mps 761 mmHg 81%
    07:00 +16°C° 0 mm 2 mps 761 mmHg 81%
    08:00 +17°C° 0 mm 2 mps 762 mmHg 77%
    09:00 +17°C° 0 mm 2 mps 762 mmHg 74%
    10:00 +17°C° 0 mm 2 mps 762 mmHg 70%
    11:00 +18°C° 0 mm 2 mps 762 mmHg 68%
    12:00 +18°C° 0 mm 2 mps 761 mmHg 66%
    13:00 +19°C° 0 mm 2 mps 760 mmHg 65%
    14:00 +19°C° 0 mm 2 mps 760 mmHg 66%
    15:00 +18°C° 0 mm 2 mps 760 mmHg 68%
    16:00 +18°C° 0 mm 3 mps 759 mmHg 70%
    17:00 +18°C° 0 mm 3 mps 760 mmHg 72%
    18:00 +18°C° 0 mm 3 mps 760 mmHg 75%
    19:00 +17°C° 0 mm 3 mps 761 mmHg 78%
    20:00 +17°C° 0 mm 3 mps 761 mmHg 79%
    21:00 +17°C° 0 mm 3 mps 761 mmHg 80%
    22:00 +16°C° 0 mm 3 mps 762 mmHg 81%
    23:00 +16°C° 0 mm 3 mps 762 mmHg 82%

    28 January, Tuesday

    Time Temperature Precipitation Wind Pressure Humidity
    00:00 +16°C° 0 mm 3 mps 761 mmHg 84%
    01:00 +14°C° 0 mm 3 mps 761 mmHg 85%
    02:00 +14°C° 0 mm 3 mps 761 mmHg 85%
    03:00 +14°C° 0 mm 3 mps 761 mmHg 84%
    04:00 +14°C° 0 mm 3 mps 761 mmHg 84%
    05:00 +14°C° 0 mm 3 mps 761 mmHg 83%
    06:00 +14°C° 0 mm 4 mps 761 mmHg 83%
    07:00 +14°C° 0 mm 4 mps 762 mmHg 82%
    08:00 +14°C° 0 mm 3 mps 762 mmHg 79%
    09:00 +16°C° 0 mm 3 mps 763 mmHg 76%
    10:00 +17°C° 0 mm 3 mps 763 mmHg 74%
    11:00 +17°C° 0 mm 3 mps 763 mmHg 72%
    12:00 +17°C° 0 mm 3 mps 762 mmHg 71%
    13:00 +18°C° 0 mm 3 mps 762 mmHg 69%
    14:00 +18°C° 0 mm 3 mps 762 mmHg 69%
    15:00 +18°C° 0 mm 2 mps 761 mmHg 69%
    16:00 +18°C° 0 mm 2 mps 761 mmHg 68%
    17:00 +18°C° 0 mm 2 mps 761 mmHg 72%
    18:00 +18°C° 0 mm 3 mps 762 mmHg 76%
    19:00 +18°C° 0 mm 3 mps 762 mmHg 79%
    20:00 +18°C° 0 mm 3 mps 763 mmHg 80%
    21:00 +18°C° 0 mm 3 mps 763 mmHg 81%
    22:00 +17°C° 0 mm 2 mps 763 mmHg 82%
    23:00 +17°C° 0.1 mm 3 mps 763 mmHg 83%

    29 January, Wednesday

    Time Temperature Precipitation Wind Pressure Humidity
    00:00 +17°C° 0.1 mm 3 mps 763 mmHg 84%
    01:00 +15°C° 0.1 mm 4 mps 763 mmHg 84%
    02:00 +15°C° 0.2 mm 4 mps 763 mmHg 85%
    03:00 +14°C° 0.2 mm 4 mps 763 mmHg 85%
    04:00 +14°C° 0.2 mm 4 mps 763 mmHg 86%
    05:00 +14°C° 0 mm 4 mps 763 mmHg 85%
    06:00 +14°C° 0 mm 4 mps 764 mmHg 85%
    07:00 +14°C° 0 mm 4 mps 764 mmHg 84%
    08:00 +14°C° 0.3 mm 4 mps 765 mmHg 83%
    09:00 +14°C° 0.3 mm 4 mps 765 mmHg 83%
    10:00 +14°C° 0.3 mm 4 mps 765 mmHg 82%
    11:00 +15°C° 0 mm 4 mps 765 mmHg 79%
    12:00 +16°C° 0 mm 3 mps 764 mmHg 76%
    13:00 +17°C° 0 mm 3 mps 764 mmHg 74%
    14:00 +17°C° 0 mm 3 mps 764 mmHg 74%
    15:00 +17°C° 0 mm 3 mps 763 mmHg 74%
    16:00 +17°C° 0 mm 3 mps 763 mmHg 74%
    17:00 +17°C° 0 mm 3 mps 763 mmHg 76%
    18:00 +17°C° 0 mm 3 mps 764 mmHg 78%
    19:00 +17°C° 0 mm 2 mps 764 mmHg 80%
    20:00 +17°C° 0 mm 2 mps 764 mmHg 80%
    21:00 +16°C° 0 mm 3 mps 765 mmHg 80%
    22:00 +16°C° 0 mm 3 mps 765 mmHg 80%
    23:00 +16°C° 0.1 mm 3 mps 765 mmHg 81%

    30 January, Thursday

    Time Temperature Precipitation Wind Pressure Humidity
    00:00 +16°C° 0.1 mm 3 mps 764 mmHg 82%
    01:00 +14°C° 0.1 mm 3 mps 764 mmHg 83%
    02:00 +14°C° 0.1 mm 3 mps 764 mmHg 84%
    03:00 +14°C° 0.1 mm 3 mps 764 mmHg 84%
    04:00 +13°C° 0.1 mm 3 mps 764 mmHg 85%
    05:00 +13°C° 0 mm 3 mps 764 mmHg 84%
    06:00 +13°C° 0 mm 3 mps 764 mmHg 84%
    07:00 +13°C° 0 mm 3 mps 765 mmHg 83%
    08:00 +13°C° 0 mm 3 mps 765 mmHg 82%
    09:00 +14°C° 0 mm 3 mps 766 mmHg 81%
    10:00 +14°C° 0 mm 3 mps 766 mmHg 80%
    11:00 +16°C° 0 mm 3 mps 765 mmHg 78%
    12:00 +16°C° 0 mm 3 mps 765 mmHg 76%
    13:00 +17°C° 0 mm 2 mps 764 mmHg 75%
    14:00 +17°C° 0 mm 2 mps 764 mmHg 74%
    15:00 +17°C° 0 mm 2 mps 763 mmHg 74%
    16:00 +17°C° 0 mm 2 mps 763 mmHg 74%
    17:00 +17°C° 0 mm 3 mps 763 mmHg 76%
    18:00 +17°C° 0 mm 3 mps 764 mmHg 77%
    19:00 +17°C° 0 mm 3 mps 764 mmHg 79%
    20:00 +17°C° 0 mm 3 mps 764 mmHg 80%
    21:00 +16°C° 0 mm 3 mps 764 mmHg 80%
    22:00 +16°C° 0 mm 2 mps 765 mmHg 81%
    23:00 +16°C° 0 mm 2 mps 764 mmHg 82%
    Show more